TimeIST,TemperatureF,Dew PointF,Humidity,Sea Level PressureIn,VisibilityMPH,Wind Direction,Wind SpeedMPH,Gust SpeedMPH,PrecipitationIn,Events,Conditions,WindDirDegrees,DateUTC
2:00 AM,57,41,43,30.00,9,North,2.3,,,,,10,2013-02-09 00:00:00
6:50 AM,53.6,46.4,77,30.06,-9999.0,NE,8.1,-,N/A,,Clear,50,2013-02-09 04:50:00
7:20 AM,53.6,46.4,77,30.06,-9999.0,NNE,10.4,-,N/A,,Clear,30,2013-02-09 05:20:00
7:50 AM,55.4,48.2,77,30.06,-9999.0,NE,5.8,-,N/A,,Clear,40,2013-02-09 05:50:00
8:00 AM,58,40,41,30.07,12,North,4.6,,,,,10,2013-02-09 06:00:00
8:20 AM,60.8,44.6,55,30.09,-9999.0,North,8.1,-,N/A,,Clear,10,2013-02-09 06:20:00
8:50 AM,60.8,48.2,63,30.09,-9999.0,NE,8.1,-,N/A,,Clear,40,2013-02-09 06:50:00
9:20 AM,64.4,42.8,45,30.09,-9999.0,NNE,10.4,-,N/A,,Clear,20,2013-02-09 07:20:00
9:50 AM,66.2,42.8,43,30.09,-9999.0,NNE,10.4,-,N/A,,Clear,30,2013-02-09 07:50:00
10:20 AM,68.0,42.8,40,30.06,-9999.0,NE,9.2,-,N/A,,Clear,40,2013-02-09 08:20:00
10:50 AM,69.8,37.4,31,30.06,-9999.0,NNE,10.4,-,N/A,,Clear,30,2013-02-09 08:50:00
11:20 AM,71.6,41.0,33,30.06,-9999.0,NE,9.2,-,N/A,,Clear,40,2013-02-09 09:20:00
11:50 AM,73.4,41.0,31,30.06,-9999.0,NE,9.2,-,N/A,,Clear,40,2013-02-09 09:50:00
12:20 PM,75.2,44.6,34,30.04,-9999.0,NE,9.2,-,N/A,,Clear,40,2013-02-09 10:20:00
12:50 PM,77.0,33.8,21,30.01,-9999.0,NNE,13.8,-,N/A,,Clear,30,2013-02-09 10:50:00
1:20 PM,77.0,35.6,22,30.01,-9999.0,NNE,13.8,-,N/A,,Clear,20,2013-02-09 11:20:00
1:50 PM,77.0,33.8,21,30.01,-9999.0,NNE,13.8,-,N/A,,Clear,20,2013-02-09 11:50:00
2:00 PM,78,32,10,29.99,16,NNE,5.8,,,,,30,2013-02-09 12:00:00
2:20 PM,77.0,32.0,19,29.98,-9999.0,NE,12.7,-,N/A,,Clear,40,2013-02-09 12:20:00
2:50 PM,77.0,32.0,19,29.98,-9999.0,NNE,12.7,-,N/A,,Clear,20,2013-02-09 12:50:00
3:20 PM,78.8,32.0,18,29.98,-9999.0,NNE,15.0,-,N/A,,Clear,30,2013-02-09 13:20:00
3:50 PM,77.0,32.0,19,29.98,-9999.0,NNE,15.0,-,N/A,,Clear,30,2013-02-09 13:50:00
4:20 PM,77.0,32.0,19,29.98,-9999.0,NNE,15.0,-,N/A,,Clear,20,2013-02-09 14:20:00
4:50 PM,77.0,39.2,26,29.98,-9999.0,NNE,15.0,-,N/A,,Clear,30,2013-02-09 14:50:00
5:20 PM,75.2,33.8,22,29.98,-9999.0,NNE,16.1,-,N/A,,Clear,20,2013-02-09 15:20:00
5:50 PM,73.4,33.8,23,29.98,-9999.0,North,13.8,-,N/A,,Clear,10,2013-02-09 15:50:00
6:20 PM,73.4,32.0,22,30.01,-9999.0,North,13.8,-,N/A,,Clear,360,2013-02-09 16:20:00
6:50 PM,71.6,33.8,25,30.01,-9999.0,North,16.1,-,N/A,,Clear,360,2013-02-09 16:50:00
7:20 PM,71.6,33.8,25,30.01,-9999.0,North,15.0,-,N/A,,Clear,360,2013-02-09 17:20:00
7:50 PM,71.6,32.0,23,30.01,-9999.0,North,10.4,-,N/A,,Clear,360,2013-02-09 17:50:00
8:00 PM,69,32,15,30.01,9,North,4.6,,,,,10,2013-02-09 18:00:00
8:20 PM,69.8,32.0,25,30.01,-9999.0,North,9.2,-,N/A,,Clear,360,2013-02-09 18:20:00
8:50 PM,66.2,37.4,35,30.01,-9999.0,NE,6.9,-,N/A,,Clear,40,2013-02-09 18:50:00
9:20 PM,64.4,41.0,42,30.01,-9999.0,NE,8.1,-,N/A,,Clear,40,2013-02-09 19:20:00
9:50 PM,64.4,39.2,40,30.01,-9999.0,NE,10.4,-,N/A,,Clear,40,2013-02-09 19:50:00
10:20 PM,57.2,50.0,77,30.01,-9999.0,Variable,2.3,-,N/A,,Clear,0,2013-02-09 20:20:00